loading
|

ONEWEB-0080, 45426

Orbit data source: Space-Track

ONEWEB-0080, 45426 is a payload satellite owned by One Web (UK) in LEO that was launched on Sat, 21 Mar 2020 UTC via a SOYUZ-2-1B launch vehicle from the Tyuratam Missile And Space Complex (TTMTR). Payloads include a variety of satellites, spacecraft, and rockets equipped with specific instruments for various scientific and technological missions. These include communications satellites like Starlink; space stations such as the ISS; scientific satellites like the Hubble; Earth observation satellites from companies like Planet Labs, Umbra, and HawkEye 360; GPS; miniature CubeSats for education and research; and military/defense satellites.

Loading next visibility...
Loading greatness...
ONEWEB-0080 details
Identifier
45426, 2020-020C
Orbit
LEO
Last TLE update13 hours ago
Origin
Flag of UKOne Web (UK)
ManufacturerOne Web
MissionOperational Commercial Communications
Bus & MotorARROW, Unknown motor
Mass148 kg wet, ~140 kg dry
Launch date (UTC)
2020-03-21 (5 years ago)
Launch vehicle
SOYUZ-2-1B
Launch site
Tyuratam Missile And Space Complex (TTMTR)
Object type
Payload
Rocket body
Debris
Shape & HBRTrap Box + 2 Pan, 5 m
Radar Cross Section2.957 m², Large (>1 m²)

Expand to show TLE details & history

TLE from 13 hours ago
0 ONEWEB-0080
1 45426U 20020C   24279.36089583 -.00000275  00000-0 -81233-3 0  9997
2 45426  87.8937 144.5312 0001956  83.6781 276.4570 13.11419182221466
Epoch: 2024-10-05T08:39Z
Definitive object data (Epoch: 2024-10-05T08:39:41.399Z)
Latitude-0°
Longitude0.09039°
Altitude1,220.396 km
Speed7.244 km/s
True Right ascension09h 38m 07s
True Declination0° 00' 00"
Sunlit
Object was in daylight at TLE epoch
Predictive object data (real-time)
Latitude-7.14253°
Longitude-0.278°
Altitude1,221.754 km
Speed7.243 km/s
Apparent Right ascension07h 21m 35s
Apparent Declination-29° 38' 32"
Sunlit
Object is in daylight
Predictive observer data (real-time)
Local Sidereal Time15:26:17
Azimuth263.05° W
Elevation-41.485°
Doppler factor1
Orbital elements
Apogee1,216.277 km
Perigee1,213.307 km
Semi-major axis7,592.929 km
Eccentricity0.0001956
Inclination87.8937°
RAAN144.5312°
Arg. of periapsis83.6781°
True anomaly276.43473°
Mean anomaly276.457°
Eccentric anomaly276.44586°
Mean motion3.28042 °/min
BSTAR-0.00081233
Period109.74 mins
No data available

ONEWEB-0080 Visibility forecast

Observer location: 39.9160978°, -105.1181434

ONEWEB-0080 is not visible in the next 10 days
Span
Click to sort rows by Start time (UTC) header in descending order
Start Az.
Max El. time (UTC)
Max El. Az.
Max El.
End time (UTC)
End Az.